Location: Casone le Fosse
(44.6547°N, 12.1103°E)
Time: 04:35:44
(UTC+00:00)

ATLAS 2AS CENTAUR R/B - Pass Details

Date: 29 October 2020
Orbit: 939 x 1273 km, 63.7° (Epoch: 23 November)

Event Time Altitude Azimuth Distance (km) Brightness Sun altitude
Rises 20:06:29 0° 318° (NW) 4,100 6.5 -42.8°
Reaches altitude 10° 20:09:30 10° 311° (NW) 3,085 5.7 -43.3°
Enters shadow 20:13:44 30° 285° (WNW) 1,894 4.3 -43.9°
